This is the latest recevied weather packets stored in our database for station/object SP9EPI-13. If no packets are shown the sender has not sent any weather packets the latest 10 day(s).
| Time | Temp. | Humidity | Pressure | Rain* | Wind** | Luminosity | Snow |
|---|---|---|---|---|---|---|---|
| 1777804200 | 25° C | 28% | 1014.2 hPa | - | - | - | - |
| 1777803601 | 25° C | 27% | 1014.2 hPa | - | - | - | - |
| 1777803001 | 23.89° C | 30% | 1014.5 hPa | - | - | - | - |
| 1777802401 | 25° C | 29% | 1014.2 hPa | - | - | - | - |
| 1777801801 | 25° C | 30% | 1014.5 hPa | - | - | - | - |
| 1777801200 | 23.89° C | 32% | 1014.9 hPa | - | - | - | - |
| 1777800600 | 23.89° C | 32% | 1014.9 hPa | - | - | - | - |
| 1777800000 | 23.89° C | 32% | 1014.9 hPa | - | - | - | - |
| 1777799400 | 23.89° C | 32% | 1014.9 hPa | - | - | - | - |
| 1777798801 | 22.78° C | 31% | 1014.9 hPa | - | - | - | - |
| 1777798201 | 22.78° C | 33% | 1015.2 hPa | - | - | - | - |
| 1777797601 | 22.78° C | 34% | 1014.9 hPa | - | - | - | - |
| 1777797001 | 22.78° C | 35% | 1014.9 hPa | - | - | - | - |
| 1777796400 | 22.78° C | 34% | 1015.2 hPa | - | - | - | - |
| 1777795800 | 22.22° C | 35% | 1015.2 hPa | - | - | - | - |
| 1777795200 | 22.22° C | 38% | 1015.2 hPa | - | - | - | - |
| 1777794601 | 21.11° C | 38% | 1015.2 hPa | - | - | - | - |
| 1777794001 | 21.11° C | 38% | 1015.2 hPa | - | - | - | - |
| 1777793400 | 21.11° C | 42% | 1015.2 hPa | - | - | - | - |
| 1777792801 | 21.11° C | 51% | 1015.2 hPa | - | - | - | - |
| 1777792201 | 20° C | 61% | 1015.2 hPa | - | - | - | - |
| 1777791600 | 18.89° C | 62% | 1015.2 hPa | - | - | - | - |
| 1777791000 | 18.89° C | 66% | 1015.2 hPa | - | - | - | - |
| 1777790401 | 17.78° C | 72% | 1015.2 hPa | - | - | - | - |
| 1777789800 | 17.22° C | 72% | 1015.2 hPa | - | - | - | - |
* Rain since midnight (hover to see other rain measurements)
** Current wind speed in m/s (hover to see current wind gust speed)